Location: Beaver Brook Station
(42.3793°N, 71.2203°W)
Time: 06:39:32
(UTC+00:00)

Cosmos 1745 Rocket - Pass Details

Date: 29 October 2020
Orbit: 953 x 997 km, 83.0° (Epoch: 23 November)

Event Time Altitude Azimuth Distance (km) Brightness Sun altitude
Rises 23:22:20 0° 351° (N) 3,696 7.1 -19.2°
Reaches altitude 10° 23:24:51 10° 350° (N) 2,750 6.5 -19.6°
Maximum altitude 23:31:09 80° 266° (W) 1,011 4.1 -20.8°
Drops below altitude 10° 23:37:29 10° 179° (S) 2,753 6.3 -22.0°
Sets 23:40:00 0° 178° (S) 3,700 7.0 -22.4°
